"Pseudo-MPEC" for P10OPCK

Created 2019 Jun 15 19:08:29 UT using Find_Orb

Click here for an explanation of pseudo-MPECs

 
 Astrometry: 
     P10OPCK  C2019 06 08?B=ZW4pPG+Q;vKB'u/G8n;qr_q?D:32Y/Onfcqe#HAstrometryyF51
     P10OPCK  C2019 06 08sIZH2'`Zw1R6(K[v9m0Hredacted;BX5`v,Ky.QS[clickT3)goCF51
     P10OPCK  C2019 06 08GF/T\7Y=hr0xAhere-for00m,p+$o8_$LBkuelAtFexplanationF51

Station data:
(F51) Pan-STARRS 1, Haleakala  (N20.707235 W156.255910)  US/Hawaii.
   Observers N. Primak, A. Schultz, S. Watters, J. Thiel, T. Goggia. Measurer
   PS1 Science Consortium. 1.8-m Ritchey-Chrétien + CCD.

Orbital elements:  P10OPCK
   Perihelion 2019 Nov 15.625168 +/- 96 TT = 15:00:14 (JD 2458803.125168)
Epoch 2019 Jun  9.0 TT = JDT 2458643.5   Earth MOID: 0.0474   AutoNEOCP
M 202.12524384 +/- 90               (J2000 ecliptic)
n   0.98903423 +/- 0.47             Peri.  212.99622 +/- 70
a   0.99768895 +/- 0.316            Node   205.93518 +/- 60
e   0.0723469 +/- 0.274             Incl.    4.21677 +/- 25
P   1.00/363.98d           H 25.6   G  0.15   U 12.2  SR
q 0.92550922 +/- 0.467    Q 1.06986869 +/- 19.5
From 3 observations 2019 June 8 (50.2 min); mean residual 0".02
Residuals in arcseconds: 
190608 F51  .01-  .02+    190608 F51  .02+  .03-    190608 F51  .01-  .01+    

Ephemerides (geocentric):
Date (UTC) HH   RA              Dec         delta   r     elong  mag " sig PA
---- -- -- --  -------------   -----------  ------ ------ -----  --- ---- ---
2019 06 15 19  17 36 02.585   +33 01 14.58  .07969 1.0620 123.7 22.1  33d 160
2019 06 15 20  17 35 55.973   +33 02 48.18  .07970 1.0620 123.6 22.1  33d 160
2019 06 15 21  17 35 49.358   +33 04 21.61  .07970 1.0620 123.6 22.1  33d 160
2019 06 15 22  17 35 42.741   +33 05 54.87  .07971 1.0620 123.6 22.1  33d 160
2019 06 15 23  17 35 36.121   +33 07 27.97  .07972 1.0619 123.6 22.1  33d 160
2019 06 16 00  17 35 29.498   +33 09 00.90  .07973 1.0619 123.5 22.1  33d 160
2019 06 16 01  17 35 22.873   +33 10 33.66  .07973 1.0619 123.5 22.1  33d 160
2019 06 16 02  17 35 16.246   +33 12 06.25  .07974 1.0619 123.5 22.1  33d 160
2019 06 16 03  17 35 09.615   +33 13 38.68  .07975 1.0618 123.5 22.1  33d 160
2019 06 16 04  17 35 02.983   +33 15 10.94  .07975 1.0618 123.4 22.1  33d 160
2019 06 16 05  17 34 56.348   +33 16 43.03  .07976 1.0618 123.4 22.1  33d 160
2019 06 16 06  17 34 49.710   +33 18 14.96  .07977 1.0618 123.4 22.1  33d 160
2019 06 16 07  17 34 43.070   +33 19 46.72  .07978 1.0618 123.3 22.1  34d 160
2019 06 16 08  17 34 36.428   +33 21 18.31  .07978 1.0617 123.3 22.2  34d 160
2019 06 16 09  17 34 29.783   +33 22 49.74  .07979 1.0617 123.3 22.2  34d 161
2019 06 16 10  17 34 23.136   +33 24 20.99  .07980 1.0617 123.3 22.2  34d 161
2019 06 16 11  17 34 16.487   +33 25 52.08  .07981 1.0617 123.2 22.2  34d 161
2019 06 16 12  17 34 09.835   +33 27 23.01  .07981 1.0616 123.2 22.2  34d 161
2019 06 16 13  17 34 03.181   +33 28 53.76  .07982 1.0616 123.2 22.2  34d 161
2019 06 16 14  17 33 56.524   +33 30 24.35  .07983 1.0616 123.1 22.2  34d 161
2019 06 16 15  17 33 49.865   +33 31 54.78  .07984 1.0616 123.1 22.2  34d 161
2019 06 16 16  17 33 43.204   +33 33 25.03  .07985 1.0615 123.1 22.2  34d 161
2019 06 16 17  17 33 36.541   +33 34 55.12  .07985 1.0615 123.1 22.2  34d 161
2019 06 16 18  17 33 29.875   +33 36 25.04  .07986 1.0615 123.0 22.2  34d 161
2019 06 16 19  17 33 23.207   +33 37 54.79  .07987 1.0615 123.0 22.2  35d 161
2019 06 16 20  17 33 16.537   +33 39 24.38  .07988 1.0615 123.0 22.2  35d 161
2019 06 16 21  17 33 09.864   +33 40 53.80  .07988 1.0614 123.0 22.2  35d 161
2019 06 16 22  17 33 03.190   +33 42 23.05  .07989 1.0614 122.9 22.2  35d 161
2019 06 16 23  17 32 56.513   +33 43 52.14  .07990 1.0614 122.9 22.2  35d 161
2019 06 17 00  17 32 49.834   +33 45 21.06  .07991 1.0614 122.9 22.2  35d 161
2019 06 17 01  17 32 43.153   +33 46 49.81  .07992 1.0613 122.8 22.2  35d 161
2019 06 17 02  17 32 36.470   +33 48 18.39  .07992 1.0613 122.8 22.2  35d 161
2019 06 17 03  17 32 29.784   +33 49 46.81  .07993 1.0613 122.8 22.2  35d 161
2019 06 17 04  17 32 23.097   +33 51 15.06  .07994 1.0613 122.8 22.2  35d 161
2019 06 17 05  17 32 16.407   +33 52 43.14  .07995 1.0613 122.7 22.2  35d 161
2019 06 17 06  17 32 09.716   +33 54 11.06  .07996 1.0612 122.7 22.2  35d 161
2019 06 17 07  17 32 03.022   +33 55 38.81  .07996 1.0612 122.7 22.2  35d 161
2019 06 17 08  17 31 56.326   +33 57 06.39  .07997 1.0612 122.6 22.2  35d 160
2019 06 17 09  17 31 49.628   +33 58 33.81  .07998 1.0612 122.6 22.2  36d 160
2019 06 17 10  17 31 42.929   +34 00 01.06  .07999 1.0611 122.6 22.2  36d 160
2019 06 17 11  17 31 36.227   +34 01 28.14  .08000 1.0611 122.6 22.2  36d 160
2019 06 17 12  17 31 29.523   +34 02 55.05  .08001 1.0611 122.5 22.2  36d 160
2019 06 17 13  17 31 22.817   +34 04 21.80  .08001 1.0611 122.5 22.2  36d 160
2019 06 17 14  17 31 16.109   +34 05 48.38  .08002 1.0610 122.5 22.2  36d 160
2019 06 17 15  17 31 09.400   +34 07 14.80  .08003 1.0610 122.4 22.2  36d 160
2019 06 17 16  17 31 02.688   +34 08 41.05  .08004 1.0610 122.4 22.2  36d 160
2019 06 17 17  17 30 55.975   +34 10 07.13  .08005 1.0610 122.4 22.2  36d 160
2019 06 17 18  17 30 49.259   +34 11 33.04  .08005 1.0609 122.4 22.2  36d 160